Location: Beau Repaire
(50.6144°N, 4.0551°E)
Time: 11:42:05
(UTC+00:00)

Okean 1 Rocket - Pass Details

Date: 15 May 2026
Orbit: 600 x 626 km, 82.5° (Epoch: 9 June)

Event Time Altitude Azimuth Distance (km) Brightness Sun altitude
Rises 19:57:50 0° 206° (SSW) 2,882 6.4 -5.0°
Reaches altitude 10° 20:00:07 10° 212° (SSW) 1,985 5.6 -5.3°
Maximum altitude 20:04:20 45° 286° (WNW) 856 4.4 -5.8°
Drops below altitude 10° 20:08:38 10° 359° (N) 2,011 6.3 -6.3°
Sets 20:10:58 0° 6° (N) 2,925 7.1 -6.6°
